When you browse on this site, cookies collect data to enhance your experience and personalize the content and advertising you see.
Visit our Privacy Policy to learn more. By continuing to use the site, you agree to this use of cookies and data.
  • en France
  • Liste des pays
  • À 7 jours
  • Température de l'eau
  • Carte satellitaire
  • Carte météo
  • Widgets météo
  • user-avatar
    Se connecter

    Météo par heure à Touying

    Ce jour, 18 Juillet, Jeudi

    Heure Température Précipitation Vent Pression Humidité
    00:00 +26°C° 0.1 mm 1 m/s 754 mmHg 71%
    01:00 +26°C° 0.1 mm 1 m/s 754 mmHg 74%
    02:00 +25°C° 0 mm 1 m/s 754 mmHg 72%
    03:00 +25°C° 0 mm 1 m/s 754 mmHg 74%
    04:00 +24°C° 0 mm 1 m/s 754 mmHg 76%
    05:00 +24°C° 0 mm 1 m/s 754 mmHg 78%
    06:00 +26°C° 0 mm 1 m/s 754 mmHg 71%
    07:00 +26°C° 0 mm 0 m/s 754 mmHg 65%
    08:00 +30°C° 0 mm 1 m/s 754 mmHg 62%
    09:00 +32°C° 0 mm 1 m/s 754 mmHg 56%
    10:00 +34°C° 0 mm 1 m/s 753 mmHg 49%
    11:00 +36°C° 0 mm 1 m/s 753 mmHg 43%
    12:00 +36°C° 0 mm 1 m/s 753 mmHg 40%
    13:00 +38°C° 0 mm 2 m/s 752 mmHg 38%
    14:00 +37°C° 0 mm 2 m/s 752 mmHg 40%
    15:00 +37°C° 0 mm 3 m/s 752 mmHg 40%
    16:00 +37°C° 0 mm 3 m/s 752 mmHg 40%
    17:00 +37°C° 0 mm 4 m/s 751 mmHg 40%
    18:00 +35°C° 0 mm 3 m/s 752 mmHg 45%
    19:00 +33°C° 0 mm 3 m/s 752 mmHg 49%
    20:00 +30°C° 0 mm 3 m/s 752 mmHg 54%
    21:00 +29°C° 0 mm 3 m/s 752 mmHg 58%
    22:00 +28°C° 0 mm 3 m/s 752 mmHg 61%
    23:00 +27°C° 0 mm 2 m/s 753 mmHg 65%

    Demain, 19 Juillet, Vendredi

    Heure Température Précipitation Vent Pression Humidité
    00:00 +27°C° 0 mm 2 m/s 753 mmHg 66%
    01:00 +26°C° 0 mm 2 m/s 753 mmHg 67%
    02:00 +26°C° 0 mm 2 m/s 753 mmHg 69%
    03:00 +25°C° 0 mm 2 m/s 753 mmHg 69%
    04:00 +25°C° 0 mm 2 m/s 753 mmHg 70%
    05:00 +25°C° 0 mm 2 m/s 753 mmHg 71%
    06:00 +27°C° 0 mm 2 m/s 753 mmHg 66%
    07:00 +28°C° 0 mm 2 m/s 753 mmHg 61%
    08:00 +30°C° 0 mm 2 m/s 753 mmHg 56%
    09:00 +32°C° 0 mm 2 m/s 752 mmHg 51%
    10:00 +35°C° 0 mm 2 m/s 752 mmHg 47%
    11:00 +36°C° 0 mm 3 m/s 752 mmHg 42%
    12:00 +37°C° 0 mm 3 m/s 751 mmHg 41%
    13:00 +37°C° 0 mm 3 m/s 751 mmHg 40%
    14:00 +38°C° 0 mm 4 m/s 750 mmHg 39%
    15:00 +37°C° 0 mm 4 m/s 750 mmHg 39%
    16:00 +37°C° 0 mm 4 m/s 750 mmHg 39%
    17:00 +37°C° 0 mm 4 m/s 749 mmHg 39%
    18:00 +35°C° 0 mm 4 m/s 749 mmHg 46%
    19:00 +33°C° 0 mm 4 m/s 750 mmHg 52%
    20:00 +30°C° 0 mm 4 m/s 750 mmHg 59%
    21:00 +29°C° 0 mm 3 m/s 750 mmHg 63%
    22:00 +28°C° 0 mm 3 m/s 750 mmHg 68%
    23:00 +27°C° 0 mm 3 m/s 750 mmHg 73%

    Après-demain, 20 Juillet, Samedi

    Heure Température Précipitation Vent Pression Humidité
    00:00 +27°C° 0 mm 3 m/s 750 mmHg 74%
    01:00 +26°C° 0 mm 3 m/s 750 mmHg 76%
    02:00 +26°C° 0 mm 2 m/s 750 mmHg 77%
    03:00 +26°C° 0.2 mm 2 m/s 750 mmHg 80%
    04:00 +25°C° 0.2 mm 2 m/s 750 mmHg 83%
    05:00 +25°C° 0.2 mm 2 m/s 750 mmHg 86%
    06:00 +25°C° 0.5 mm 2 m/s 750 mmHg 88%
    07:00 +25°C° 0.5 mm 1 m/s 750 mmHg 89%
    08:00 +25°C° 0.5 mm 1 m/s 751 mmHg 91%
    09:00 +26°C° 0.2 mm 2 m/s 751 mmHg 87%
    10:00 +27°C° 0.2 mm 2 m/s 750 mmHg 83%
    11:00 +28°C° 0.2 mm 2 m/s 750 mmHg 78%
    12:00 +30°C° 0 mm 2 m/s 750 mmHg 71%
    13:00 +32°C° 0 mm 2 m/s 749 mmHg 63%
    14:00 +34°C° 0 mm 2 m/s 749 mmHg 56%
    15:00 +36°C° 0 mm 2 m/s 749 mmHg 51%
    16:00 +37°C° 0 mm 2 m/s 748 mmHg 47%
    17:00 +38°C° 0 mm 2 m/s 748 mmHg 42%
    18:00 +36°C° 0 mm 2 m/s 748 mmHg 47%
    19:00 +34°C° 0 mm 2 m/s 748 mmHg 53%
    20:00 +32°C° 0 mm 2 m/s 748 mmHg 58%
    21:00 +30°C° 0 mm 2 m/s 748 mmHg 63%
    22:00 +29°C° 0 mm 2 m/s 748 mmHg 68%
    23:00 +28°C° 0 mm 2 m/s 749 mmHg 73%

    21 Juillet, Dimanche

    Heure Température Précipitation Vent Pression Humidité
    00:00 +28°C° 0 mm 2 m/s 749 mmHg 76%
    01:00 +27°C° 0 mm 2 m/s 749 mmHg 78%
    02:00 +27°C° 0 mm 2 m/s 749 mmHg 81%
    03:00 +26°C° 0 mm 2 m/s 749 mmHg 82%
    04:00 +26°C° 0 mm 2 m/s 749 mmHg 84%
    05:00 +26°C° 0 mm 2 m/s 749 mmHg 85%
    06:00 +28°C° 0 mm 2 m/s 749 mmHg 77%
    07:00 +30°C° 0 mm 1 m/s 749 mmHg 69%
    08:00 +32°C° 0 mm 1 m/s 749 mmHg 60%
    09:00 +35°C° 0 mm 2 m/s 749 mmHg 53%
    10:00 +38°C° 0 mm 3 m/s 749 mmHg 45%
    11:00 +40°C° 0 mm 3 m/s 749 mmHg 38%
    12:00 +43°C° 0 mm 4 m/s 748 mmHg 32%
    13:00 +45°C° 0 mm 4 m/s 748 mmHg 27%
    14:00 +48°C° 0 mm 5 m/s 747 mmHg 21%
    15:00 +48°C° 0 mm 5 m/s 746 mmHg 20%
    16:00 +48°C° 0 mm 4 m/s 746 mmHg 18%
    17:00 +48°C° 0 mm 4 m/s 745 mmHg 16%
    18:00 +45°C° 0 mm 4 m/s 746 mmHg 20%
    19:00 +42°C° 0 mm 4 m/s 746 mmHg 23%
    20:00 +39°C° 0 mm 3 m/s 747 mmHg 26%
    21:00 +37°C° 0 mm 3 m/s 747 mmHg 29%
    22:00 +36°C° 0 mm 2 m/s 748 mmHg 32%
    23:00 +35°C° 0 mm 2 m/s 748 mmHg 35%

    22 Juillet, Lundi

    Heure Température Précipitation Vent Pression Humidité
    00:00 +33°C° 0 mm 1 m/s 748 mmHg 37%
    01:00 +32°C° 0 mm 1 m/s 748 mmHg 39%
    02:00 +31°C° 0 mm 1 m/s 748 mmHg 41%
    03:00 +31°C° 0 mm 1 m/s 748 mmHg 43%
    04:00 +30°C° 0 mm 1 m/s 748 mmHg 45%
    05:00 +30°C° 0 mm 1 m/s 748 mmHg 46%
    06:00 +32°C° 0 mm 1 m/s 748 mmHg 45%
    07:00 +34°C° 0 mm 2 m/s 748 mmHg 44%
    08:00 +36°C° 0 mm 2 m/s 749 mmHg 43%
    09:00 +37°C° 0 mm 2 m/s 749 mmHg 41%
    10:00 +38°C° 0 mm 2 m/s 749 mmHg 39%
    11:00 +39°C° 0 mm 2 m/s 749 mmHg 37%
    12:00 +39°C° 0.1 mm 3 m/s 748 mmHg 40%
    13:00 +38°C° 0.1 mm 3 m/s 748 mmHg 42%
    14:00 +37°C° 0.1 mm 3 m/s 748 mmHg 45%
    15:00 +36°C° 0 mm 4 m/s 748 mmHg 48%
    16:00 +35°C° 0 mm 4 m/s 748 mmHg 51%
    17:00 +34°C° 0 mm 4 m/s 748 mmHg 54%
    18:00 +32°C° 0.1 mm 4 m/s 748 mmHg 60%
    19:00 +30°C° 0.1 mm 3 m/s 748 mmHg 66%
    20:00 +28°C° 0.1 mm 3 m/s 748 mmHg 72%
    21:00 +27°C° 0.6 mm 3 m/s 749 mmHg 78%
    22:00 +26°C° 0.6 mm 2 m/s 749 mmHg 83%
    23:00 +25°C° 0.6 mm 2 m/s 749 mmHg 89%

    23 Juillet, Mardi

    Heure Température Précipitation Vent Pression Humidité
    00:00 +25°C° 1.8 mm 2 m/s 748 mmHg 90%
    01:00 +25°C° 1.8 mm 2 m/s 748 mmHg 91%
    02:00 +24°C° 1.8 mm 2 m/s 748 mmHg 93%
    03:00 +24°C° 2.7 mm 2 m/s 748 mmHg 94%
    04:00 +24°C° 2.7 mm 2 m/s 748 mmHg 94%
    05:00 +24°C° 2.7 mm 1 m/s 748 mmHg 95%
    06:00 +24°C° 0.7 mm 2 m/s 748 mmHg 93%
    07:00 +24°C° 0.7 mm 2 m/s 748 mmHg 91%
    08:00 +25°C° 0.7 mm 3 m/s 748 mmHg 90%
    09:00 +25°C° 0 mm 2 m/s 748 mmHg 87%
    10:00 +25°C° 0 mm 2 m/s 748 mmHg 83%
    11:00 +26°C° 0 mm 1 m/s 748 mmHg 80%
    12:00 +27°C° 0 mm 1 m/s 747 mmHg 73%
    13:00 +29°C° 0 mm 1 m/s 747 mmHg 66%
    14:00 +31°C° 0 mm 1 m/s 746 mmHg 59%
    15:00 +31°C° 0 mm 1 m/s 746 mmHg 58%
    16:00 +31°C° 0 mm 1 m/s 746 mmHg 56%
    17:00 +32°C° 0 mm 1 m/s 746 mmHg 54%
    18:00 +30°C° 0 mm 1 m/s 746 mmHg 58%
    19:00 +29°C° 0 mm 1 m/s 746 mmHg 62%
    20:00 +28°C° 0 mm 2 m/s 747 mmHg 66%
    21:00 +27°C° 0 mm 1 m/s 747 mmHg 69%
    22:00 +26°C° 0 mm 1 m/s 747 mmHg 71%
    23:00 +24°C° 0 mm 0 m/s 748 mmHg 73%
    Voir plus